DW4821 Weather Reports


Display with metric or nautical units.
time (UTC)temp
F
wind
direction
speed
MPH
gust
MPH
rain 1hr
in
rain 24hr
in
rain mn
in
humidity
%
barometer
mb
20260904234532 69 2 11.0 21.0 0.00 0.00 0.00 34 1006.4
20260904233024 70 356 12.0 21.0 0.00 0.00 0.00 33 1006.5
20260904231520 69 350 10.0 19.0 0.00 0.00 0.00 34 1006.5
20260904230018 70 40 15.0 23.0 0.00 0.00 0.00 33 1006.3
20260904224517 70 25 13.0 22.0 0.00 0.00 0.00 33 1006.0
20260904223014 70 360 11.0 22.0 0.00 0.00 0.00 33 1005.8
20260904221513 72 334 8.0 21.0 0.00 0.00 0.00 31 1005.6
20260904220024 71 187 7.0 25.0 0.00 0.00 0.00 33 1005.6
20260904214512 71 187 17.0 27.0 0.00 0.00 0.00 33 1005.2
20260904213012 71 302 18.0 25.0 0.00 0.00 0.00 34 1004.9
20260904211505 72 311 17.0 27.0 0.00 0.00 0.00 33 1004.8
20260904210003 71 285 15.0 25.0 0.00 0.00 0.00 34 1004.4
20260904204502 71 292 14.0 22.0 0.00 0.00 0.00 33 1004.5
20260904203100 70 288 15.0 25.0 0.00 0.00 0.00 35 1004.4
20260904201558 69 258 12.0 20.0 0.00 0.00 0.00 36 1004.3
20260904200058 70 121 2.0 6.0 0.00 0.00 0.00 36 1004.2
20260904194558 69 192 1.0 6.0 0.00 0.00 0.00 35 1003.7
20260904193059 69 227 4.0 11.0 0.00 0.00 0.00 36 1003.6
20260904191553 69 154 2.0 8.0 0.00 0.00 0.00 35 1003.5
20260904190052 69 182 1.0 6.0 0.00 0.00 0.00 35 1003.2
20260904184557 69 79 2.0 4.0 0.00 0.00 0.00 34 1003.2
20260904183051 69 45 2.0 4.0 0.00 0.00 0.00 35 1003.1
20260904181555 67 221 0.0 4.0 0.00 0.00 0.00 37 1003.1
20260904180050 66 219 1.0 4.0 0.00 0.00 0.00 37 1003.2
20260904174603 66 218 3.0 11.0 0.00 0.00 0.00 37 1003.0
20260904173040 65 163 2.0 5.0 0.00 0.00 0.00 38 1002.8
20260904171540 65 215 4.0 10.0 0.00 0.00 0.00 39 1002.8
20260904170039 65 227 7.0 11.0 0.00 0.00 0.00 39 1002.8
20260904164537 65 242 9.0 13.0 0.00 0.00 0.00 39 1002.8
20260904163049 65 242 5.0 10.0 0.00 0.00 0.00 40 1002.6
20260904161538 65 254 6.0 10.0 0.00 0.00 0.00 39 1002.5
20260904160035 65 187 1.0 5.0 0.00 0.00 0.00 40 1002.6
20260904154534 64 85 3.0 8.0 0.00 0.00 0.00 41 1002.0
20260904153042 64 53 5.0 10.0 0.00 0.00 0.00 41 1001.5
20260904151533 63 80 5.0 10.0 0.00 0.00 0.00 43 1001.4
20260904150032 63 94 5.0 10.0 0.00 0.00 0.00 44 1001.6
20260904144527 62 74 6.0 10.0 0.00 0.00 0.00 46 1001.4
20260904143024 59 43 4.0 8.0 0.00 0.00 0.00 52 1001.7
20260904141524 57 54 3.0 8.0 0.00 0.00 0.00 54 1001.7
20260904140022 56 54 5.0 10.0 0.00 0.00 0.00 55 1001.6
20260904134522 56 59 5.0 13.0 0.00 0.00 0.00 55 1001.7
20260904133022 54 47 3.0 10.0 0.00 0.00 0.00 58 1001.8
20260904131521 53 54 2.0 6.0 0.00 0.00 0.00 59 1001.9
20260904130021 53 41 3.0 8.0 0.00 0.00 0.00 59 1001.5
20260904124520 54 58 4.0 11.0 0.00 0.00 0.00 58 1001.5
20260904123019 55 32 4.0 8.0 0.00 0.00 0.00 56 1001.5
20260904121518 55 64 5.0 12.0 0.00 0.00 0.00 55 1001.6
20260904120020 54 42 6.0 11.0 0.00 0.00 0.00 56 1001.7
20260904114516 55 68 6.0 9.0 0.00 0.00 0.00 55 1001.8
20260904113019 56 56 5.0 10.0 0.00 0.00 0.00 53 1001.8
20260904111513 56 65 7.0 10.0 0.00 0.00 0.00 53 1001.8
20260904110021 56 57 5.0 8.0 0.00 0.00 0.00 53 1001.9
20260904104511 57 58 5.0 9.0 0.00 0.00 0.00 51 1002.1
20260904103010 56 55 6.0 10.0 0.00 0.00 0.00 53 1002.3
20260904101506 55 27 5.0 11.0 0.00 0.00 0.00 54 1002.5
20260904100005 54 48 5.0 8.0 0.00 0.00 0.00 56 1002.7
20260904094504 54 34 4.0 8.0 0.00 0.00 0.00 57 1002.7
20260904093004 54 46 8.0 14.0 0.00 0.00 0.00 56 1002.8
20260904091502 53 50 5.0 8.0 0.00 0.00 0.00 58 1003.0
20260904090100 53 50 5.0 10.0 0.00 0.00 0.00 58 1003.2
20260904084555 54 69 8.0 10.0 0.00 0.00 0.00 56 1003.4
20260904083053 55 65 7.0 10.0 0.00 0.00 0.00 55 1003.5
20260904081551 55 54 4.0 8.0 0.00 0.00 0.00 55 1003.5
20260904080046 56 46 4.0 7.0 0.00 0.00 0.00 53 1003.6
20260904074545 56 48 4.0 7.0 0.00 0.00 0.00 54 1003.8
20260904073041 57 49 3.0 6.0 0.00 0.00 0.00 54 1003.8
20260904071540 57 42 2.0 4.0 0.00 0.00 0.00 54 1003.9
20260904070046 58 40 2.0 5.0 0.00 0.00 0.00 52 1004.0
20260904064543 59 29 3.0 4.0 0.00 0.00 0.00 50 1004.1
20260904063036 59 7 4.0 7.0 0.00 0.00 0.00 49 1004.1
20260904061538 58 360 4.0 6.0 0.00 0.00 0.00 51 1004.1
20260904060027 58 357 5.0 7.0 0.00 0.00 0.00 51 1004.1
20260904054531 57 6 6.0 8.0 0.00 0.00 0.00 50 1004.5
20260904053025 58 36 3.0 5.0 0.00 0.00 0.00 48 1004.7
20260904051531 59 82 2.0 4.0 0.00 0.00 0.00 46 1005.0
20260904050024 59 83 1.0 2.0 0.00 0.00 0.00 46 1005.0
20260904044531 59 82 1.0 3.0 0.00 0.00 0.00 47 1004.9
20260904043022 58 83 2.0 4.0 0.00 0.00 0.00 47 1004.9
20260904041521 58 83 3.0 7.0 0.00 0.00 0.00 48 1004.7
20260904040021 57 10 2.0 3.0 0.00 0.00 0.00 48 1004.6
20260904034540 58 9 1.0 3.0 0.00 0.00 0.00 47 1004.5
20260904033023 58 9 2.0 4.0 0.00 0.00 0.00 46 1004.8
20260904031521 59 3 2.0 5.0 0.00 0.00 0.00 45 1004.7
20260904030018 59 2 1.0 4.0 0.00 0.00 0.00 46 1004.6
20260904024517 58 8 0.0 4.0 0.00 0.00 0.00 46 1004.4
20260904023015 60 346 0.0 0.0 0.00 0.00 0.00 44 1004.3
20260904021515 61 346 1.0 5.0 0.00 0.00 0.00 43 1004.1
20260904020013 62 344 0.0 3.0 0.00 0.00 0.00 42 1004.1
20260904014513 63 344 2.0 5.0 0.00 0.00 0.00 41 1004.1
20260904013013 65 333 1.0 7.0 0.00 0.00 0.00 39 1004.2
20260904011542 65 313 5.0 10.0 0.00 0.00 0.00 38 1004.2
20260904010011 67 316 7.0 16.0 0.00 0.00 0.00 36 1004.1
20260904004509 69 318 8.0 14.0 0.00 0.02 0.00 34 1004.0
20260904003008 69 299 12.0 20.0 0.00 0.02 0.00 34 1003.9
20260904001508 70 310 9.0 20.0 0.00 0.02 0.00 34 1003.9
20260904000007 70 333 11.0 21.0 0.00 0.02 0.00 34 1003.5